Humidity-temperature Sensor

Selected Measurement Type: Air Temperature

 
Air Temperature [°C]     6 entries per hour
Showing data from 7/14/2020 (00:00:00 Z) to 7/13/2020 (00:01:00 Z)
Previous Next [ Day | 3-Days | 7-Days ]
First Last
Prev [ Day | 3-Days | 7-Days ] Next
First Last

Start Time:     :
End Time:     :     
Time (in GMT) :00 :50 :40 :30 :20 :10
Previous Next [ Day | 3-Days | 7-Days ]
First Last
Prev [ Day | 3-Days | 7-Days ] Next
First Last


123 => good data
MM => data is determined as missing
-- => data not received/configured
Back to Top Back to Top
7/14/2020 00:00 to 23:10 23.01 23.25 23.20 23.08 23.11 23.12
7/13/2020 23:00 to 22:10 23.11 23.02 23.13 23.06 23.02 23.05
7/13/2020 22:00 to 21:10 23.05 23.00 23.01 22.97 23.06 23.05
7/13/2020 21:00 to 20:10 22.98 22.95 23.03 22.95 23.05 23.09
7/13/2020 20:00 to 19:10 23.13 23.13 23.10 23.09 23.06 23.13
7/13/2020 19:00 to 18:10 22.99 22.98 22.96 22.88 22.84 22.90
7/13/2020 18:00 to 17:10 22.96 22.98 22.90 22.83 22.81 22.84
7/13/2020 17:00 to 16:10 22.78 22.73 22.76 22.72 22.75 22.77
7/13/2020 16:00 to 15:10 22.76 22.79 22.72 22.70 22.69 22.70
7/13/2020 15:00 to 14:10 22.70 22.71 22.73 22.68 22.66 22.72
7/13/2020 14:00 to 13:10 22.57 22.54 22.60 22.58 22.53 22.59
7/13/2020 13:00 to 12:10 22.51 22.45 22.46 22.39 22.41 22.45
7/13/2020 12:00 to 11:10 22.41 22.43 22.40 22.36 22.43 22.38
7/13/2020 11:00 to 10:10 22.44 22.47 22.44 22.47 22.51 22.53
7/13/2020 10:00 to 9:10 22.53 22.50 22.50 22.52 22.56 22.49
7/13/2020 09:00 to 8:10 22.42 22.47 22.51 22.54 22.54 22.50
7/13/2020 08:00 to 7:10 22.41 22.48 22.46 22.47 22.44 22.43
7/13/2020 07:00 to 6:10 22.52 22.44 22.48 22.52 22.50 22.49
7/13/2020 06:00 to 5:10 22.50 22.50 22.51 22.59 22.61 22.60
7/13/2020 05:00 to 4:10 22.65 22.61 22.56 22.59 22.64 22.58
7/13/2020 04:00 to 3:10 22.64 22.59 22.59 22.55 22.58 22.63
7/13/2020 03:00 to 2:10 22.62 22.66 22.62 22.65 22.64 22.65
7/13/2020 02:00 to 1:10 22.66 22.68 22.66 22.71 22.79 22.80
7/13/2020 01:00 to 0:10 22.76 22.88 22.91 22.93 23.09 23.08